TimeCEST,TemperatureF,Dew PointF,Humidity,Sea Level PressureIn,VisibilityMPH,Wind Direction,Wind SpeedMPH,Gust SpeedMPH,PrecipitationIn,Events,Conditions,WindDirDegrees,DateUTC
12:00 AM,44.6,44.6,100,30.04,1.9,Variable,2.3,-,N/A,,Overcast,0,2012-10-24 22:00:00
1:00 AM,44.6,44.6,100,30.04,1.9,WNW,3.5,-,N/A,,Overcast,300,2012-10-24 23:00:00
2:00 AM,44.6,44.6,100,30.04,1.9,WNW,2.3,-,N/A,,Overcast,290,2012-10-25 00:00:00
3:00 AM,44.6,44.6,100,30.01,1.9,NW,3.5,-,N/A,,Overcast,310,2012-10-25 01:00:00
4:00 AM,44.6,44.6,100,30.01,1.9,West,2.3,-,N/A,,Overcast,280,2012-10-25 02:00:00
5:00 AM,44.6,42.8,93,29.98,1.9,NNW,4.6,-,N/A,,Overcast,330,2012-10-25 03:00:00
6:00 AM,44.6,42.8,93,29.98,1.9,NW,5.8,-,N/A,,Overcast,310,2012-10-25 04:00:00
7:00 AM,42.8,42.8,100,29.98,1.9,NW,4.6,-,N/A,,Overcast,320,2012-10-25 05:00:00
7:34 AM,42.8,42.8,100,29.98,1.2,NNW,4.6,-,N/A,,Light Drizzle,340,2012-10-25 05:34:00
8:00 AM,42.8,42.8,100,29.98,0.9,NNW,4.6,-,N/A,,Light Drizzle,340,2012-10-25 06:00:00
8:39 AM,42.8,42.8,100,29.95,2.2,NNW,4.6,-,N/A,,Light Drizzle,330,2012-10-25 06:39:00
9:00 AM,42.8,42.8,100,29.95,2.5,NNW,4.6,-,N/A,,Overcast,330,2012-10-25 07:00:00
10:00 AM,42.8,42.8,100,29.95,2.5,WNW,6.9,-,N/A,,Light Drizzle,290,2012-10-25 08:00:00
11:00 AM,42.8,42.8,100,29.95,2.5,WNW,9.2,-,N/A,,Overcast,300,2012-10-25 09:00:00
11:35 AM,42.8,42.8,100,29.92,3.7,West,6.9,-,N/A,,Overcast,260,2012-10-25 09:35:00
12:00 PM,42.8,42.8,100,29.92,5.6,WNW,6.9,-,N/A,,Overcast,290,2012-10-25 10:00:00
1:00 PM,44.6,42.8,93,29.92,6.2,WNW,6.9,-,N/A,,Overcast,290,2012-10-25 11:00:00
2:00 PM,44.6,42.8,93,29.89,6.2,WNW,8.1,-,N/A,,Overcast,290,2012-10-25 12:00:00
2:31 PM,46.4,42.8,87,29.89,6.2,WNW,6.9,-,N/A,,Overcast,290,2012-10-25 12:31:00
3:00 PM,46.4,42.8,87,29.86,6.2,West,6.9,-,N/A,,Overcast,280,2012-10-25 13:00:00
4:00 PM,46.4,44.6,93,29.86,6.2,WSW,5.8,-,N/A,,Overcast,250,2012-10-25 14:00:00
4:19 PM,46.4,44.6,93,29.86,5.6,West,6.9,-,N/A,,Overcast,260,2012-10-25 14:19:00
5:00 PM,46.4,44.6,93,29.86,5.0,West,6.9,-,N/A,,Overcast,280,2012-10-25 15:00:00
5:45 PM,46.4,42.8,87,29.86,5.6,West,6.9,-,N/A,,Overcast,280,2012-10-25 15:45:00
6:00 PM,46.4,44.6,93,29.86,5.6,West,8.1,-,N/A,,Overcast,280,2012-10-25 16:00:00
7:00 PM,46.4,44.6,93,29.83,6.2,West,5.8,-,N/A,,Overcast,260,2012-10-25 17:00:00
8:00 PM,46.4,44.6,93,29.83,6.2,West,6.9,-,N/A,,Overcast,270,2012-10-25 18:00:00
9:00 PM,46.4,44.6,93,29.83,6.2,West,6.9,-,N/A,,Overcast,280,2012-10-25 19:00:00
10:00 PM,46.4,44.6,93,29.83,5.6,West,10.4,-,N/A,,Overcast,280,2012-10-25 20:00:00
11:00 PM,46.4,44.6,93,29.83,5.0,West,9.2,-,N/A,,Mostly Cloudy,270,2012-10-25 21:00:00